Weather observations for the past three days for
Kirksville, Kirksville Regional Airport
Imperial (Metric)
Date Time (cdt) Wind (mph) Vis. (mi.) Weather Sky Cond. Temperature (ºF) Relative Humidity Wind Chill (°F) Heat Index (°F) Pressure Precipitation (in)
Air Dwpt 6 hour altimeter (in) sea level (mb) 1 hr 3 hr 6 hr
Max. Min.
04 14:55 S 13 G 21 10.00 Fair CLR 96.1 69.1 41% 102 29.95 1013.2
04 13:55 S 9 10.00 Fair CLR 95 71.1 46% 102 29.97 1014.0
04 12:55 SW 13 G 21 10.00 Fair CLR 91.9 71.1 93.9 73 51% 99 29.99 1014.7
04 11:55 S 14 10.00 Fair CLR 91.9 71.1 51% 99 30 1015.2
04 10:55 SW 13 G 23 10.00 Fair CLR 90 70 52% 95 30 1015.0
04 09:55 Vrbl 6 G 16 10.00 Fair CLR 87.1 71.1 59% 93 29.99 1014.7
04 08:55 SW 7 10.00 Fair CLR 82 69.1 65% 85 29.98 1014.6
04 07:55 SW 7 10.00 Fair CLR 77 69.1 77% 79 29.98 1014.7
04 06:55 S 5 10.00 Fair CLR 73 68 77 71.1 84% 29.97 1014.0
04 05:55 SW 6 10.00 Fair CLR 73.9 68 82% 29.94 1013.2
04 04:55 SW 6 10.00 Fair CLR 75.9 68 77% 77 29.93 1012.6
04 03:55 S 7 10.00 Fair CLR 75 69.1 82% 75 29.92 1012.4
04 02:55 S 7 10.00 Fair CLR 75.9 70 82% 77 29.92 1012.2
04 01:55 S 7 10.00 Fair CLR 75 70 84% 75 29.92 1012.4
04 00:55 S 7 10.00 Fair CLR 75.9 70 90 75 82% 77 29.92 1012.3
03 23:55 S 5 10.00 Fair CLR 77 69.1 77% 79 29.92 1012.3
03 22:55 S 5 10.00 Fair CLR 77 69.1 77% 79 29.92 1012.5
03 21:55 SE 3 10.00 Fair CLR 77 69.1 77% 79 29.92 1012.6
03 20:55 S 5 10.00 Fair CLR 81 69.1 67% 84 29.9 1011.8
03 19:55 S 5 10.00 Fair CLR 84 70 63% 88 29.9 1011.7
03 18:55 S 7 10.00 Fair CLR 91 70 97 91 50% 97 29.9 1011.6
03 17:55 S 9 10.00 Fair CLR 93.9 70 46% 100 29.9 1011.8
03 16:55 S 10 10.00 Fair CLR 95 68 41% 100 29.91 1011.8
03 15:55 S 9 G 17 10.00 A Few Clouds FEW060 95 70 44% 101 29.92 1012.2
03 14:55 SW 9 10.00 Fair CLR 96.1 70 43% 103 29.92 1012.4
03 13:55 SW 10 10.00 Fair CLR 95 69.1 43% 101 29.94 1012.9
03 12:55 SW 12 G 17 10.00 Fair CLR 93 71.1 93.9 75 49% 100 29.95 1013.5
03 11:55 W 10 10.00 Fair CLR 91 70 50% 97 29.97 1014.1
03 10:55 SW 10 G 21 10.00 Fair CLR 89.1 70 53% 94 29.98 1014.3
03 09:55 SW 10 G 18 10.00 Fair CLR 84.9 70 61% 89 29.98 1014.3
03 08:55 SW 12 G 18 10.00 Fair CLR 82 69.1 65% 85 29.98 1014.3
03 07:55 S 8 10.00 Fair CLR 77 69.1 77% 79 29.97 1014.2
03 06:55 S 7 10.00 Fair CLR 75 68 80.1 73.9 79% 76 29.95 1013.6
03 05:55 S 6 10.00 Fair CLR 75 69.1 82% 75 29.94 1013.1
03 04:55 S 7 10.00 Fair CLR 75.9 69.1 79% 77 29.94 1012.9
03 03:55 S 8 10.00 Fair CLR 77 70 79% 79 29.94 1012.9
03 02:55 S 8 10.00 Fair CLR 78.1 70 76% 80 29.94 1012.9
03 01:55 S 7 10.00 Fair CLR 78.1 70 76% 80 29.94 1013.1
03 00:55 S 7 10.00 Fair CLR 80.1 69.1 90 78.1 69% 83 29.95 1013.2
02 23:55 S 8 10.00 Fair CLR 79 69.1 72% 82 29.94 1013.2
02 22:55 S 8 10.00 Fair CLR 79 70 74% 82 29.95 1013.3
02 21:55 S 8 10.00 Fair CLR 78.1 70 76% 80 29.95 1013.4
02 20:55 S 6 10.00 Fair CLR 81 70 69% 84 29.94 1013.0
02 19:55 S 6 10.00 Fair CLR 84 70 63% 88 29.93 1012.8
02 18:55 S 5 10.00 Fair CLR 91 70 98.1 91 50% 97 29.93 1012.6
02 17:55 SW 10 10.00 Fair CLR 95 66 39% 98 29.93 1012.6
02 16:55 SW 12 G 20 10.00 Fair CLR 97 64.9 35% 100 29.93 1012.6
02 15:55 SW 10 10.00 Fair CLR 98.1 66.9 36% 103 29.94 1013.0
02 14:55 SW 8 G 20 10.00 Fair CLR 97 68 39% 102 29.96 1013.7
02 13:55 SW 12 G 17 10.00 Fair CLR 96.1 69.1 41% 102 29.97 1014.2
02 12:55 S 8 10.00 Fair CLR 93.9 70 93.9 73.9 46% 100 30 1014.9
02 11:55 SW 10 G 21 10.00 Fair CLR 91 70 50% 97 30.01 1015.6
02 10:55 SW 9 10.00 Fair CLR 88 70 55% 93 30.02 1015.7
02 09:55 SW 12 10.00 Fair CLR 84 69.1 61% 88 30 1015.4
02 08:55 SW 7 10.00 Fair CLR 82 68 63% 85 30 1015.4
02 07:55 SW 7 10.00 Fair CLR 78.1 68 71% 80 30 1015.3
02 06:55 S 7 10.00 Fair CLR 73.9 68 79 73 82% 30 1015.1
02 05:55 S 5 10.00 Fair CLR 73.9 68 82% 29.99 1014.9
02 04:55 S 5 10.00 Partly Cloudy SCT100 73.9 68 82% 29.99 1014.7
02 03:55 S 6 10.00 Fair CLR 75 68 79% 76 29.98 1014.2
02 02:55 S 7 10.00 Fair CLR 75.9 68 77% 77 29.96 1013.8
02 01:55 S 6 10.00 Fair CLR 78.1 68 71% 80 29.97 1014.1
02 00:55 S 8 10.00 Fair CLR 78.1 68 89.1 75 71% 80 29.98 1014.5
01 23:55 S 6 10.00 Fair CLR 77 66.9 71% 79 29.99 1014.7
01 22:55 S 7 10.00 Fair CLR 75 66 74% 76 29.98 1014.5
01 21:55 S 6 10.00 Fair CLR 77 66 69% 79 29.97 1014.2
01 20:55 S 6 10.00 Fair CLR 78.1 66.9 69% 80 29.96 1013.9
01 19:55 S 7 10.00 Fair CLR 82 66 58% 84 29.95 1013.7
01 18:55 S 6 10.00 Fair CLR 90 66 98.1 90 45% 93 29.96 1013.8
01 17:55 S 7 10.00 Fair CLR 95 63 35% 96 29.96 1013.8
01 16:55 SW 9 10.00 Fair CLR 97 62.1 32% 98 29.96 1013.7
01 15:55 SW 10 10.00 Fair CLR 98.1 62.1 31% 99 29.97 1014.1
Date Time (cdt) Wind (mph) Vis. (mi.) Weather Sky Cond. Air Dwpt Max. Min. Relative Humidity Wind Chill (°F) Heat Index (°F) altimeter (in) sea level (mb) 1 hr 3 hr 6 hr
6 hour
Temperature (ºF) Pressure Precipitation (in)